GFSFLT2_850_dewp_012.txt.gz
Dewpoint
-11 -9 -9 -9 -11 -11 -9 -8 -10 -10 -9 -8 -9 -8 -7 -7 -7 -7 -6 -5 -5 -5 -5 -5 -4 -4 -4
-9 -9 -9 -12 -11 -8 -8 -11 -11 -11 -10 -9 -8 -8 -8 -7 -7 -6 -6 -6 -6 -5 -5 -5 -5 -5 -4
-9 -11 -11 -10 -8 -10 -11 -11 -11 -11 -10 -10 -9 -8 -8 -8 -7 -7 -7 -7 -7 -7 -6 -6 -6 -5 -5
-10 -10 -9 -8 -11 -10 -11 -11 -12 -12 -12 -13 -10 -13 -9 -9 -9 -8 -7 -7 -7 -7 -6 -6 -6 -6 -6
-9 -8 -9 -10 -9 -10 -11 -12 -11 -11 -10 -14 -12 -13 -12 -12 -12 -11 -8 -7 -7 -6 -6 -6 -5 -6 -6
-8 -10 -9 -10 -10 -11 -11 -9 -9 -10 -10 -13 -12 -12 -12 -11 -11 -8 -8 -7 -7 -6 -6 -6 -6 -6 -5
-9 -10 -10 -10 -10 -10 -8 -9 -10 -12 -11 -12 -11 -11 -11 -11 -12 -10 -8 -8 -7 -7 -6 -5 -6 -5 -5
-10 -10 -10 -9 -8 -9 -9 -9 -11 -12 -10 -10 -11 -11 -11 -11 -12 -12 -11 -10 -7 -7 -7 -6 -6 -5 -5
-10 -9 -9 -9 -9 -10 -10 -10 -10 -11 -11 -10 -11 -11 -11 -12 -12 -11 -11 -9 -11 -10 -9 -7 -6 -5 -5
-11 -12 -12 -12 -12 -11 -10 -10 -11 -11 -11 -10 -11 -11 -10 -11 -11 -12 -12 -11 -11 -10 -10 -9 -9 -7 -6
-12 -12 -12 -11 -11 -10 -10 -10 -11 -11 -11 -10 -11 -10 -11 -10 -11 -12 -11 -11 -10 -10 -10 -10 -8 -7 -6
-12 -12 -11 -10 -10 -10 -10 -10 -10 -10 -10 -10 -11 -10 -10 -10 -10 -11 -11 -10 -10 -9 -9 -9 -8 -7 -6
-11 -11 -10 -10 -10 -10 -10 -10 -10 -10 -10 -10 -9 -10 -10 -10 -10 -10 -9 -10 -10 -9 -9 -8 -7 -7 -6
-10 -10 -10 -10 -10 -10 -10 -9 -10 -10 -10 -10 -9 -9 -10 -10 -9 -9 -10 -9 -9 -8 -8 -8 -8 -7 -7
-10 -10 -10 -10 -10 -9 -9 -9 -10 -9 -9 -10 -10 -9 -10 -9 -9 -10 -9 -8 -8 -8 -8 -8 -8 -7 -7
-9 -9 -9 -9 -9 -9 -9 -9 -9 -9 -9 -9 -9 -9 -10 -9 -9 -9 -9 -9 -8 -8 -7 -8 -7 -7 -6
-9 -9 -9 -9 -9 -9 -8 -9 -9 -9 -9 -9 -8 -8 -9 -9 -9 -8 -8 -8 -8 -8 -7 -7 -7 -7 -7

GFSFLT2_850_dewp_015.txt.gz
Dewpoint
-14 -13 -11 -14 -14 -13 -12 -11 -12 -13 -9 -8 -8 -7 -7 -7 -7 -6 -6 -6 -5 -5 -4 -4 -4 -4 -4
-11 -11 -12 -12 -11 -10 -11 -13 -12 -13 -10 -9 -8 -8 -7 -7 -6 -7 -6 -6 -6 -5 -5 -5 -5 -5 -4
-9 -10 -11 -10 -9 -11 -12 -12 -12 -13 -12 -13 -10 -9 -8 -8 -7 -7 -7 -7 -7 -6 -6 -6 -6 -5 -5
-9 -10 -9 -9 -11 -11 -12 -11 -12 -11 -11 -12 -10 -14 -13 -12 -11 -12 -11 -8 -7 -7 -6 -6 -6 -6 -5
-9 -9 -8 -10 -11 -10 -11 -11 -10 -11 -9 -11 -12 -13 -13 -12 -12 -12 -11 -8 -7 -7 -6 -6 -6 -5 -5
-9 -9 -10 -11 -10 -10 -10 -9 -9 -9 -11 -12 -13 -13 -12 -12 -12 -10 -10 -8 -7 -7 -7 -6 -6 -5 -5
-10 -11 -10 -11 -10 -9 -9 -9 -10 -11 -11 -11 -13 -12 -11 -12 -12 -12 -12 -10 -8 -7 -6 -6 -5 -5 -5
-10 -10 -10 -10 -9 -9 -10 -10 -11 -12 -11 -10 -11 -11 -12 -12 -12 -13 -12 -11 -8 -7 -7 -7 -7 -6 -6
-12 -9 -9 -11 -10 -10 -11 -10 -11 -11 -11 -10 -11 -11 -11 -12 -12 -12 -11 -11 -11 -11 -9 -8 -7 -7 -6
-10 -12 -12 -12 -11 -10 -10 -10 -10 -11 -11 -10 -11 -11 -11 -11 -11 -11 -12 -12 -11 -11 -11 -9 -9 -8 -7
-12 -12 -12 -11 -10 -10 -10 -10 -10 -10 -11 -10 -11 -11 -11 -11 -11 -11 -11 -11 -11 -11 -11 -10 -9 -9 -7
-12 -11 -11 -10 -10 -10 -10 -10 -10 -9 -10 -10 -10 -10 -10 -11 -11 -11 -11 -11 -11 -11 -10 -10 -10 -9 -8
-11 -11 -10 -10 -10 -10 -10 -10 -9 -10 -10 -9 -9 -9 -10 -10 -10 -10 -10 -10 -11 -10 -10 -9 -9 -10 -9
-10 -10 -10 -10 -10 -9 -9 -9 -9 -10 -10 -9 -9 -9 -10 -9 -9 -9 -10 -10 -10 -10 -9 -8 -8 -8 -8
-10 -10 -10 -9 -9 -9 -9 -9 -9 -9 -9 -10 -9 -9 -9 -9 -9 -10 -10 -10 -10 -9 -8 -8 -8 -8 -8
-10 -9 -9 -9 -9 -9 -9 -9 -9 -9 -9 -9 -8 -9 -10 -9 -9 -9 -10 -9 -9 -8 -8 -8 -8 -8 -7
-9 -9 -9 -9 -9 -9 -9 -9 -9 -9 -9 -8 -9 -9 -9 -9 -9 -8 -8 -8 -8 -8 -8 -7 -7 -7 -7

GFSFLT2_850_dewp_018.txt.gz
Dewpoint
-15 -15 -14 -16 -17 -16 -15 -14 -16 -15 -14 -8 -7 -7 -7 -7 -7 -6 -6 -5 -5 -5 -4 -4 -4 -4 -3
-11 -12 -12 -13 -12 -12 -15 -17 -15 -14 -14 -8 -8 -8 -7 -7 -6 -6 -7 -6 -6 -6 -5 -5 -5 -5 -5
-9 -9 -11 -12 -12 -14 -15 -15 -14 -14 -13 -13 -13 -13 -8 -7 -8 -8 -7 -7 -7 -7 -6 -6 -6 -5 -5
-9 -10 -10 -11 -11 -12 -14 -14 -13 -13 -13 -12 -14 -12 -14 -14 -14 -13 -12 -12 -8 -7 -7 -6 -6 -6 -5
-8 -9 -10 -10 -12 -13 -12 -11 -11 -12 -12 -12 -13 -13 -14 -14 -13 -12 -13 -10 -8 -7 -7 -7 -6 -6 -6
-8 -9 -10 -11 -13 -11 -10 -9 -9 -11 -12 -12 -12 -12 -13 -12 -12 -13 -11 -9 -8 -7 -7 -7 -7 -6 -6
-9 -10 -10 -13 -10 -9 -9 -9 -10 -12 -11 -11 -11 -11 -12 -12 -12 -12 -13 -12 -10 -8 -7 -7 -7 -6 -6
-10 -10 -10 -9 -9 -9 -10 -11 -10 -11 -11 -10 -11 -11 -11 -12 -12 -13 -13 -12 -10 -8 -8 -7 -7 -7 -6
-11 -11 -10 -10 -11 -11 -11 -10 -10 -10 -11 -11 -11 -11 -11 -11 -12 -12 -12 -11 -11 -11 -9 -8 -8 -7 -7
-13 -13 -13 -12 -11 -11 -10 -10 -10 -10 -11 -10 -11 -11 -10 -11 -11 -11 -11 -11 -11 -11 -11 -9 -8 -8 -8
-13 -13 -12 -12 -11 -10 -10 -10 -10 -10 -10 -10 -11 -10 -11 -10 -10 -11 -11 -11 -11 -11 -11 -11 -10 -9 -8
-13 -12 -11 -11 -11 -10 -10 -10 -9 -9 -9 -9 -10 -9 -10 -11 -11 -10 -10 -10 -10 -10 -11 -11 -11 -10 -9
-11 -11 -11 -10 -10 -10 -10 -10 -10 -10 -10 -8 -9 -9 -9 -10 -10 -9 -10 -10 -10 -11 -11 -10 -10 -9 -9
-11 -10 -10 -10 -10 -10 -9 -9 -9 -10 -10 -9 -9 -9 -9 -9 -9 -9 -9 -9 -10 -11 -10 -9 -9 -9 -8
-10 -10 -10 -9 -9 -9 -9 -9 -9 -9 -10 -10 -10 -9 -9 -9 -9 -9 -10 -10 -10 -10 -9 -8 -9 -9 -9
-10 -9 -9 -9 -9 -9 -9 -9 -9 -9 -9 -10 -9 -9 -10 -10 -9 -10 -10 -10 -9 -8 -8 -8 -8 -8 -8
-10 -9 -9 -9 -9 -9 -9 -9 -9 -9 -10 -9 -9 -9 -10 -10 -10 -8 -8 -8 -8 -8 -8 -8 -8 -8 -8

GFSFLT2_850_dewp_024.txt.gz
Dewpoint
-17 -18 -19 -19 -20 -20 -19 -19 -20 -22 -22 -19 -14 -9 -7 -6 -6 -6 -5 -5 -5 -5 -4 -4 -4 -4 -3
-17 -17 -17 -18 -17 -15 -15 -17 -19 -21 -18 -15 -15 -14 -14 -8 -7 -6 -6 -6 -6 -6 -5 -5 -5 -5 -5
-15 -15 -14 -14 -12 -13 -13 -17 -19 -17 -15 -15 -14 -14 -14 -11 -8 -8 -8 -8 -7 -7 -7 -7 -6 -6 -5
-13 -12 -10 -10 -10 -11 -12 -15 -16 -15 -15 -14 -14 -14 -13 -13 -13 -13 -13 -13 -13 -12 -8 -7 -7 -6 -6
-11 -8 -8 -9 -9 -10 -10 -13 -12 -14 -14 -14 -13 -13 -13 -13 -13 -13 -13 -13 -13 -12 -7 -6 -6 -6 -6
-8 -8 -8 -9 -9 -10 -11 -10 -10 -13 -13 -12 -12 -13 -12 -12 -12 -12 -13 -13 -13 -10 -7 -7 -7 -7 -7
-8 -9 -8 -9 -10 -9 -9 -10 -10 -12 -12 -11 -12 -12 -12 -12 -12 -12 -13 -13 -13 -12 -9 -7 -7 -7 -6
-9 -9 -9 -9 -9 -9 -10 -11 -11 -12 -11 -10 -12 -11 -11 -12 -12 -12 -12 -11 -11 -11 -8 -7 -7 -7 -7
-11 -11 -11 -11 -12 -13 -12 -11 -11 -11 -11 -10 -11 -11 -11 -12 -12 -11 -11 -11 -11 -11 -11 -9 -8 -8 -7
-13 -14 -15 -14 -13 -11 -11 -10 -10 -10 -10 -10 -10 -11 -10 -11 -10 -10 -11 -11 -11 -11 -10 -10 -10 -9 -8
-16 -16 -13 -12 -12 -11 -10 -10 -10 -9 -10 -10 -10 -10 -10 -10 -10 -11 -11 -11 -11 -11 -10 -10 -10 -9 -9
-14 -12 -12 -11 -11 -10 -10 -10 -9 -9 -10 -10 -10 -9 -10 -11 -10 -11 -10 -10 -10 -9 -9 -10 -11 -10 -10
-12 -11 -11 -11 -10 -10 -10 -10 -10 -10 -10 -10 -10 -9 -9 -10 -10 -10 -10 -10 -9 -9 -10 -11 -10 -10 -10
-11 -11 -10 -10 -10 -9 -9 -9 -9 -10 -9 -9 -9 -9 -9 -9 -9 -10 -10 -9 -10 -10 -10 -10 -9 -9 -9
-10 -10 -10 -10 -9 -9 -9 -9 -8 -9 -9 -9 -9 -9 -9 -10 -10 -10 -10 -10 -11 -10 -9 -9 -9 -9 -9
-10 -9 -9 -9 -9 -9 -9 -8 -8 -9 -9 -9 -10 -9 -10 -10 -10 -10 -10 -10 -10 -9 -9 -9 -10 -10 -9
-9 -9 -9 -9 -9 -9 -8 -8 -9 -9 -9 -9 -9 -8 -10 -10 -10 -9 -9 -9 -9 -9 -9 -9 -9 -9 -9

GFSFLT2_850_dewp_027.txt.gz
Dewpoint
-13 -15 -18 -19 -19 -20 -20 -20 -20 -22 -22 -22 -21 -15 -8 -6 -6 -6 -6 -5 -5 -4 -4 -4 -3 -3 -3
-13 -18 -18 -19 -18 -19 -18 -18 -17 -20 -21 -21 -16 -15 -14 -12 -9 -7 -6 -6 -6 -6 -5 -5 -5 -5 -4
-16 -17 -17 -18 -17 -15 -14 -14 -17 -20 -21 -15 -14 -14 -14 -14 -11 -9 -10 -10 -8 -7 -6 -6 -6 -5 -5
-17 -14 -13 -13 -10 -11 -11 -11 -14 -21 -16 -14 -14 -14 -14 -13 -13 -13 -13 -13 -13 -13 -7 -7 -6 -6 -6
-11 -10 -9 -9 -8 -8 -9 -10 -13 -16 -14 -14 -14 -14 -14 -13 -13 -13 -13 -13 -13 -11 -7 -6 -6 -6 -6
-8 -10 -8 -8 -9 -9 -9 -9 -9 -11 -12 -11 -12 -14 -13 -12 -12 -12 -12 -12 -12 -12 -8 -7 -7 -6 -6
-8 -8 -8 -9 -9 -10 -10 -9 -9 -11 -12 -12 -12 -13 -12 -12 -12 -12 -13 -12 -12 -12 -12 -9 -7 -6 -6
-9 -9 -9 -9 -9 -9 -10 -10 -12 -12 -11 -10 -12 -11 -11 -12 -12 -13 -12 -12 -11 -11 -11 -8 -7 -7 -7
-11 -12 -12 -12 -13 -13 -13 -11 -11 -10 -11 -10 -11 -10 -11 -12 -12 -12 -11 -11 -11 -11 -11 -11 -9 -8 -7
-17 -18 -17 -16 -13 -12 -11 -10 -10 -10 -10 -10 -10 -10 -10 -11 -11 -11 -11 -11 -11 -11 -11 -11 -10 -9 -8
-19 -17 -13 -12 -11 -11 -10 -10 -9 -9 -10 -10 -10 -10 -11 -10 -11 -11 -11 -10 -10 -10 -10 -9 -9 -9 -9
-14 -12 -12 -11 -11 -10 -10 -9 -9 -9 -9 -9 -9 -9 -9 -9 -10 -10 -10 -10 -11 -10 -10 -10 -10 -10 -10
-12 -11 -11 -11 -10 -10 -10 -10 -9 -9 -9 -9 -9 -9 -9 -9 -9 -10 -10 -11 -10 -10 -10 -11 -11 -10 -9
-11 -10 -10 -10 -10 -9 -10 -9 -9 -10 -9 -9 -9 -9 -9 -9 -9 -10 -11 -10 -10 -10 -10 -9 -9 -9 -9
-10 -10 -10 -10 -10 -10 -9 -9 -9 -9 -10 -10 -9 -9 -9 -9 -10 -10 -10 -9 -10 -9 -9 -9 -9 -9 -10
-9 -9 -9 -10 -10 -10 -9 -9 -9 -9 -9 -10 -10 -9 -10 -10 -10 -10 -9 -9 -9 -8 -9 -9 -9 -9 -9
-9 -9 -9 -9 -9 -9 -9 -8 -9 -9 -9 -9 -8 -9 -10 -10 -10 -9 -9 -9 -9 -9 -9 -8 -9 -9 -8

GFSFLT2_850_dewp_030.txt.gz
Dewpoint
-3 -4 -4 -3 -4 -7 -16 -17 -17 -21 -22 -21 -23 -23 -21 -10 -7 -6 -5 -5 -4 -4 -3 -3 -3 -3 -3
-1 -2 -1 -3 -12 -20 -19 -20 -15 -18 -20 -20 -22 -22 -18 -16 -12 -8 -7 -6 -5 -5 -5 -5 -4 -4 -4
-2 -2 -9 -17 -18 -22 -21 -12 -11 -15 -17 -23 -23 -17 -15 -15 -14 -14 -14 -11 -7 -6 -6 -5 -5 -5 -4
-9 -15 -15 -16 -14 -11 -9 -8 -8 -9 -16 -16 -15 -15 -15 -15 -14 -14 -14 -13 -13 -13 -11 -7 -7 -6 -5
-11 -10 -7 -8 -8 -8 -8 -8 -9 -9 -10 -9 -9 -11 -12 -13 -14 -14 -13 -12 -12 -12 -12 -7 -6 -6 -5
-7 -7 -8 -8 -8 -8 -8 -8 -8 -10 -9 -9 -9 -10 -10 -12 -13 -13 -12 -12 -12 -13 -12 -8 -7 -6 -6
-8 -8 -8 -8 -8 -8 -8 -9 -9 -9 -8 -9 -9 -9 -9 -12 -12 -12 -12 -13 -13 -12 -12 -10 -7 -6 -6
-8 -8 -8 -9 -8 -9 -9 -9 -9 -9 -9 -9 -10 -9 -9 -11 -12 -12 -12 -12 -12 -12 -11 -9 -7 -7 -6
-15 -16 -17 -17 -15 -10 -11 -9 -9 -9 -9 -9 -10 -9 -9 -11 -11 -11 -11 -11 -11 -11 -10 -10 -9 -8 -7
-12 -16 -19 -18 -15 -13 -12 -10 -10 -10 -9 -10 -10 -9 -9 -10 -10 -10 -10 -10 -10 -10 -10 -11 -11 -8 -8
-21 -18 -14 -12 -12 -11 -11 -10 -10 -10 -10 -9 -10 -9 -10 -10 -9 -9 -9 -10 -10 -10 -10 -10 -10 -9 -8
-16 -13 -12 -11 -11 -10 -10 -10 -10 -10 -10 -9 -9 -9 -9 -9 -9 -10 -10 -10 -11 -11 -10 -10 -10 -10 -10
-12 -12 -11 -11 -10 -10 -10 -10 -10 -10 -10 -9 -9 -9 -9 -9 -9 -10 -9 -11 -11 -10 -10 -9 -9 -9 -9
-11 -11 -10 -10 -10 -10 -10 -10 -10 -10 -9 -9 -9 -9 -9 -9 -9 -9 -10 -10 -10 -10 -10 -9 -9 -9 -9
-10 -10 -10 -10 -10 -10 -10 -9 -9 -9 -9 -9 -9 -9 -9 -9 -10 -10 -10 -10 -9 -9 -9 -9 -9 -9 -9
-9 -9 -9 -9 -9 -9 -9 -9 -9 -9 -9 -9 -9 -9 -10 -10 -9 -10 -9 -9 -9 -8 -8 -8 -8 -8 -8
-9 -9 -9 -9 -9 -9 -9 -9 -9 -8 -9 -9 -9 -9 -9 -9 -9 -9 -9 -10 -9 -8 -8 -8 -8 -7 -7